FLOCK 1C 3

导读 | 星芒AI

FLOCK 1C 3 是由美国公司 Planet Labs 运营的 Dove 系列微型地球观测卫星之一,属于 Flock 1C 卫星群。该卫星主要用于高分辨率光学成像,支持每日对全球范围进行多次成像,广泛应用于环境监测、农业、灾害评估等领域。Flock 1C 3 于 2016 年发射,运行在低地球轨道,具备快速重访能力和高图像质量,是 Planet 全球卫星星座的重要组成部分。

基本信息
目录编号:
40041
目录名称:
FLOCK 1C 3
国际标识:
2014-033AH
轨道中心:
EARTH
卫星名称:
FLOCK 1C 3
卫星全名:
--
卫星状态:
已陨落 最后检测时间 2025-01-03
发射日期:
2014-06-19 UTC
国别 :
美国 (US)
星等 :
--
轨道信息
数据来源 国际轨道数据
星历时间: 2024-12-26T22:34:31+0800
轨道信息已过期307天
半长轴: 6547.457km
偏心率: 0.0009465
轨道倾角: 98.011°
近地点辐角 190.352°
升交点赤经 6.248°
平近点角 169.758°
近地点: 163.124km
远地点: 175.52km
周期: 87.876分钟
每日圈数: 16.386788
详细信息
使用方式:
暂无